This is the latest recevied weather packets stored in our database for station/object WV5G-13. If no packets are shown the sender has not sent any weather packets the latest 10 day(s).
| Time | Temp. | Humidity | Pressure | Rain* | Wind** | Luminosity | Snow |
|---|---|---|---|---|---|---|---|
| 1777463368 | 5.56° C | 85% | 1017.2 hPa | 0 mm | - | 1 W/m² | - |
| 1777463066 | 5.56° C | 84% | 1016.9 hPa | 0 mm | - | 0 W/m² | - |
| 1777462761 | 5.56° C | 84% | 1016.8 hPa | 0 mm | - | 0 W/m² | - |
| 1777462456 | 5.56° C | 84% | 1016.7 hPa | 0 mm | - | 0 W/m² | - |
| 1777462154 | 6.11° C | 83% | 1016.6 hPa | 0 mm | - | 0 W/m² | - |
| 1777461850 | 6.11° C | 83% | 1016.4 hPa | 0 mm | - | 0 W/m² | - |
| 1777461546 | 6.11° C | 82% | 1016.4 hPa | 0 mm | - | 0 W/m² | - |
| 1777461242 | 6.11° C | 82% | 1016.2 hPa | 0 mm | - | 0 W/m² | - |
| 1777460937 | 6.67° C | 81% | 1016.1 hPa | 0 mm | - | 0 W/m² | - |
| 1777460632 | 6.67° C | 81% | 1016.2 hPa | 0 mm | - | 0 W/m² | - |
| 1777460328 | 6.67° C | 80% | 1016.2 hPa | 0 mm | - | 0 W/m² | - |
| 1777460026 | 6.67° C | 80% | 1016.2 hPa | 0 mm | - | 0 W/m² | - |
| 1777459723 | 7.22° C | 79% | 1016.4 hPa | 0 mm | - | 0 W/m² | - |
| 1777459419 | 7.22° C | 79% | 1016.1 hPa | 0 mm | - | 0 W/m² | - |
| 1777459117 | 7.22° C | 79% | 1016.2 hPa | 0 mm | - | 0 W/m² | - |
| 1777458814 | 7.22° C | 79% | 1016.1 hPa | 0 mm | - | 0 W/m² | - |
| 1777458511 | 7.22° C | 78% | 1016.1 hPa | 0 mm | - | 0 W/m² | - |
| 1777458208 | 7.78° C | 78% | 1016.4 hPa | 0 mm | - | 0 W/m² | - |
| 1777457902 | 7.78° C | 78% | 1016.5 hPa | 0 mm | - | 0 W/m² | - |
| 1777457599 | 7.22° C | 78% | 1016.1 hPa | 0 mm | - | 0 W/m² | - |
| 1777457294 | 7.78° C | 77% | 1016.1 hPa | 0 mm | - | 0 W/m² | - |
| 1777456990 | 7.78° C | 77% | 1016.2 hPa | 0 mm | - | 0 W/m² | - |
| 1777456685 | 7.78° C | 77% | 1016.2 hPa | 0 mm | - | 0 W/m² | - |
| 1777456380 | 7.78° C | 76% | 1016.2 hPa | 0 mm | - | 0 W/m² | - |
| 1777456077 | 7.78° C | 76% | 1016.4 hPa | 0 mm | - | 0 W/m² | - |
* Rain latest hour (hover to see other rain measurements)
** Current wind speed in m/s (hover to see current wind gust speed)